Location: Shenandoah County Park
(38.9356°N, 78.4524°W)
Time: 07:42:24
(UTC-05:00)

S-56A Canister/Altair - Pass Details

Date: 17 December 2023
Orbit: 640 x 2488 km, 38.9° (Epoch: 22 February)

Event Time Altitude Azimuth Distance (km) Brightness Sun altitude
Rises 05:38:36 0° 209° (SSW) 5,538 11.8 -20.2°
Reaches altitude 10° 05:43:21 10° 199° (SSW) 4,236 11.3 -19.3°
Maximum altitude 05:51:41 26° 148° (SSE) 2,559 10.7 -17.8°
Drops below altitude 10° 05:57:53 10° 95° (E) 3,079 11.9 -16.6°
Sets 06:00:42 0° 83° (E) 3,799 12.3 -16.1°
